Weather History for Toledo, OH

Change the Weather History Date:

Friday, May 24, 2013

  Actual Average Record
Temperature  
Mean Temperature 50 °F 62 °F  
Max Temperature 60 °F 74 °F 90 °F (2007)
Min Temperature 39 °F 51 °F 31 °F (1963)
Degree Days  
Heating Degree Days 15 5  
Month to date heating degree days 119 180  
Since 1 July heating degree days 6096 6082  
Cooling Degree Days 0 2  
Month to date cooling degree days 61 27  
Year to date cooling degree days 61 35  
Moisture  
Dew Point 36 °F    
Average Humidity 64    
Maximum Humidity 92    
Minimum Humidity 36    
Precipitation  
Precipitation 0.00 in 0.12 in 0.97 in (1971)
Month to date precipitation 0.63 2.73  
Year to date precipitation 12.52 12.52  
Snow  
Snow 0.00 in 0.00 in - ()
Month to date snowfall 0.0 0.1  
Since 1 July snowfall 22.4 37.6  
Snow Depth 0.00 in    
Sea Level Pressure  
Sea Level Pressure 30.27 in    
Wind  
Wind Speed 8 mph (North)    
Max Wind Speed 17 mph    
Max Gust Speed 23 mph    
Visibility 10 miles    
Events      
T = Trace of Precipitation, MM = Missing Value Source: NWS Daily Summary

Daily Weather History Graph

Daily Weather History Graph

Search for Another Location

Airport:

Trip Planner

Search our weather history database for the weather conditions in past years. The results will help you decide how hot, cold, wet, or windy it might be!

Date:

Astronomy

May. 24, 2013 Rise Set
Actual Time 6:08 AM EDT 8:56 PM EDT
Civil Twilight 5:35 AM EDT 9:29 PM EDT
Nautical Twilight 4:54 AM EDT 10:10 PM EDT
Astronomical Twilight 4:07 AM EDT 10:58 PM EDT
Moon 8:37 PM EDT (5/24) 5:40 AM EDT (5/24)
Length of Visible Light 15h 53m
Length of Day
14h 48m
Full, 100% of the Moon is Illuminated
May 24
Full
May 25
Full
May 31
Last Quarter
Jun 8
New
Jun 16
First Quarter

Hourly Weather History & Observations

Time (EDT) Temp. Windchill Dew Point Humidity Pressure Visibility Wind Dir Wind Speed Gust Speed Precip Events Conditions
12:02 AM 46.4 °F 41.5 °F 41.0 °F 81% 30.15 in 10.0 mi North 10.4 mph - N/A   Overcast
12:43 AM 46.4 °F 42.4 °F 41.0 °F 81% 30.15 in 10.0 mi North 8.1 mph - N/A   Overcast
12:52 AM 46.0 °F 41.9 °F 41.0 °F 83% 30.16 in 10.0 mi North 8.1 mph - N/A   Overcast
1:52 AM 45.0 °F 42.6 °F 39.9 °F 82% 30.17 in 10.0 mi North 4.6 mph - N/A   Mostly Cloudy
1:59 AM 44.6 °F 42.2 °F 39.2 °F 81% 30.17 in 10.0 mi North 4.6 mph - N/A   Scattered Clouds
2:52 AM 43.0 °F 41.3 °F 39.9 °F 89% 30.18 in 10.0 mi NNW 3.5 mph - N/A   Partly Cloudy
3:49 AM 44.6 °F 42.2 °F 39.2 °F 81% 30.19 in 10.0 mi NNW 4.6 mph - N/A   Mostly Cloudy
3:52 AM 44.1 °F 40.8 °F 39.9 °F 85% 30.20 in 10.0 mi NW 5.8 mph - N/A   Mostly Cloudy
4:07 AM 42.8 °F 39.3 °F 39.2 °F 87% 30.19 in 10.0 mi NW 5.8 mph - N/A   Scattered Clouds
4:52 AM 43.0 °F 37.7 °F 37.9 °F 82% 30.22 in 10.0 mi NNW 9.2 mph - N/A   Mostly Cloudy
5:52 AM 41.0 °F 35.2 °F 37.0 °F 86% 30.24 in 10.0 mi NNW 9.2 mph - N/A   Scattered Clouds
6:52 AM 41.0 °F 35.8 °F 36.0 °F 82% 30.26 in 10.0 mi NNW 8.1 mph - N/A   Clear
7:52 AM 43.0 °F 37.7 °F 37.0 °F 80% 30.28 in 10.0 mi North 9.2 mph - N/A   Scattered Clouds
8:32 AM 44.6 °F 37.4 °F 35.6 °F 71% 30.29 in 10.0 mi NNE 16.1 mph 23.0 mph N/A   Mostly Cloudy
8:52 AM 43.0 °F 36.8 °F 35.1 °F 74% 30.31 in 10.0 mi North 11.5 mph - N/A   Mostly Cloudy
9:52 AM 46.9 °F - 34.0 °F 61% 30.32 in 10.0 mi North 10.4 mph - N/A   Mostly Cloudy
10:06 AM 44.6 °F 38.4 °F 32.0 °F 61% 30.32 in 10.0 mi NNW 12.7 mph - N/A   Scattered Clouds
10:52 AM 48.9 °F - 33.1 °F 54% 30.33 in 10.0 mi North 15.0 mph 18.4 mph N/A   Partly Cloudy
11:52 AM 51.1 °F - 33.1 °F 50% 30.34 in 10.0 mi North 15.0 mph 19.6 mph N/A   Partly Cloudy
12:52 PM 52.0 °F - 34.0 °F 50% 30.35 in 10.0 mi NNW 10.4 mph 17.3 mph N/A   Mostly Cloudy
1:52 PM 54.0 °F - 34.0 °F 47% 30.34 in 10.0 mi North 8.1 mph 16.1 mph N/A   Mostly Cloudy
2:52 PM 57.0 °F - 36.0 °F 45% 30.34 in 10.0 mi North 10.4 mph 16.1 mph N/A   Partly Cloudy
3:52 PM 57.0 °F - 34.0 °F 42% 30.34 in 10.0 mi Variable 6.9 mph 19.6 mph N/A   Clear
4:52 PM 59.0 °F - 33.1 °F 38% 30.33 in 10.0 mi NNW 11.5 mph 19.6 mph N/A   Clear
5:52 PM 57.9 °F - 32.0 °F 37% 30.32 in 10.0 mi North 11.5 mph 18.4 mph N/A   Clear
6:52 PM 57.9 °F - 30.9 °F 36% 30.31 in 10.0 mi North 10.4 mph - N/A   Clear
7:52 PM 55.9 °F - 33.1 °F 42% 30.30 in 10.0 mi NNE 9.2 mph - N/A   Clear
8:52 PM 52.0 °F - 34.0 °F 50% 30.30 in 10.0 mi NE 6.9 mph - N/A   Clear
9:52 PM 46.9 °F - 36.0 °F 66% 30.31 in 10.0 mi ENE 5.8 mph - N/A   Clear
10:52 PM 43.0 °F - 37.9 °F 82% 30.34 in 10.0 mi Calm Calm - N/A   Clear
11:52 PM 39.9 °F - 37.0 °F 89% 30.35 in 10.0 mi Calm Calm - N/A   Clear